Tulsa, OK

7:54 PM CDT on July 25, 2017 (GMT -0500)
Tulsa International

Weather History for KTUL - February, 2014

Change the Weather History Date:

Saturday, February 15, 2014

  Actual Average Record
Temperature  
Mean Temperature 44 °F 42 °F  
Max Temperature 67 °F 53 °F 80 °F (1976)
Min Temperature 21 °F 31 °F 3 °F (1905)
Degree Days  
Heating Degree Days 21 23  
Month to date heating degree days 539 368  
Since 1 July heating degree days 3050 2641  
Moisture  
Dew Point 25 °F    
Average Humidity 50    
Maximum Humidity 81    
Minimum Humidity 19    
Precipitation  
Precipitation 0.00 in 0.06 in 1.74 in (1938)
Month to date precipitation 0.20 0.89  
Year to date precipitation 0.33 2.55  
Sea Level Pressure  
Sea Level Pressure 30.04 in    
Wind  
Wind Speed 9 mph (South)    
Max Wind Speed 26 mph    
Max Gust Speed 33 mph    
Visibility 10 miles    
Events      
T = Trace of Precipitation, MM = Missing Value Source: NWS Daily Summary

Daily Weather History Graph

Daily Weather History Graph

Search for Another Location

Airport or City:

Trip Planner

Search our weather history database for the weather conditions in past years. The results will help you decide how hot, cold, wet, or windy it might be!

Date:

Astronomy

Feb. 15, 2014 Rise Set
Actual Time 7:11 AM CST 6:04 PM CST
Civil Twilight 6:44 AM CST 6:31 PM CST
Nautical Twilight 6:14 AM CST 7:01 PM CST
Astronomical Twilight 5:44 AM CST 7:31 PM CST
Moon 7:02 PM CST (2/15) 7:12 AM CST (2/15)
Length of Visible Light 11h 46m
Length of Day
10h 53m
Waxing Gibbous, 99% of the Moon is Illuminated
Feb 15
Waxing Gibbous
Feb 22
Last Quarter
Mar 1
New
Mar 8
First Quarter
Mar 16
Full

Hourly Weather History & Observations

Time (CST) Temp. Windchill Dew Point Humidity Pressure Visibility Wind Dir Wind Speed Gust Speed Precip Events Conditions
12:53 AM 30.9 °F 27.5 °F 21.9 °F 69% 30.14 in 10.0 mi NE 3.5 mph - N/A   Mostly Cloudy
1:53 AM 30.9 °F - 21.9 °F 69% 30.14 in 10.0 mi Calm Calm - N/A   Scattered Clouds
2:53 AM 27.0 °F - 21.0 °F 78% 30.12 in 10.0 mi Calm Calm - N/A   Mostly Cloudy
3:53 AM 28.0 °F 24.2 °F 21.9 °F 78% 30.11 in 10.0 mi ENE 3.5 mph - N/A   Mostly Cloudy
4:53 AM 28.0 °F - 21.0 °F 75% 30.14 in 10.0 mi Calm Calm - N/A   Mostly Cloudy
5:53 AM 27.0 °F 19.5 °F 21.0 °F 78% 30.13 in 10.0 mi East 6.9 mph - N/A   Scattered Clouds
6:53 AM 26.1 °F 21.9 °F 21.0 °F 81% 30.13 in 8.0 mi ESE 3.5 mph - N/A   Scattered Clouds
7:53 AM 27.0 °F 20.5 °F 21.9 °F 81% 30.11 in 8.0 mi ESE 5.8 mph - N/A   Mostly Cloudy
8:53 AM 33.1 °F 25.5 °F 24.1 °F 70% 30.09 in 9.0 mi South 9.2 mph - N/A   Mostly Cloudy
9:53 AM 39.0 °F 31.4 °F 25.0 °F 57% 30.08 in 10.0 mi South 12.7 mph - N/A   Overcast
10:53 AM 46.9 °F - 26.1 °F 44% 30.06 in 10.0 mi South 11.5 mph - N/A   Overcast
11:53 AM 54.0 °F - 27.0 °F 35% 30.00 in 10.0 mi South 18.4 mph 23.0 mph N/A   Mostly Cloudy
12:53 PM 61.0 °F - 25.0 °F 25% 29.97 in 10.0 mi SSW 21.9 mph 29.9 mph N/A   Mostly Cloudy
1:53 PM 63.0 °F - 25.0 °F 24% 29.90 in 10.0 mi South 24.2 mph 32.2 mph N/A   Scattered Clouds
2:53 PM 66.0 °F - 25.0 °F 21% 29.89 in 10.0 mi South 18.4 mph - N/A   Mostly Cloudy
3:53 PM 66.9 °F - 23.0 °F 19% 29.90 in 10.0 mi WSW 18.4 mph 31.1 mph N/A   Scattered Clouds
4:53 PM 66.9 °F - 25.0 °F 21% 29.94 in 10.0 mi West 11.5 mph - N/A   Partly Cloudy
5:53 PM 66.0 °F - 25.0 °F 21% 29.95 in 10.0 mi WSW 11.5 mph - N/A   Partly Cloudy
6:53 PM 62.1 °F - 26.1 °F 25% 29.98 in 10.0 mi SW 6.9 mph - N/A   Scattered Clouds
7:53 PM 57.0 °F - 26.1 °F 30% 30.01 in 10.0 mi SSW 5.8 mph - N/A   Mostly Cloudy
8:51 PM 55.4 °F - 26.6 °F 33% 30.02 in 10.0 mi South 4.6 mph - N/A   Scattered Clouds
8:53 PM 55.9 °F - 26.1 °F 32% 30.02 in 10.0 mi South 3.5 mph - N/A   Scattered Clouds
9:53 PM 51.1 °F - 28.0 °F 41% 30.07 in 10.0 mi North 5.8 mph - N/A   Mostly Cloudy
10:53 PM 51.1 °F - 30.9 °F 46% 30.07 in 10.0 mi NE 8.1 mph - N/A   Mostly Cloudy
11:53 PM 48.0 °F - 30.9 °F 52% 30.07 in 10.0 mi Calm Calm - N/A   Mostly Cloudy